Seattle, WA

6:40 PM PST on December 06, 2019 (GMT -0800)
Seattle-Tacoma International

Weather History for KSEA - November, 2019

Change the Weather History Date:

Tuesday, November 12, 2019

  Actual Average Record
Temperature  
Mean Temperature 50 °F 46 °F  
Max Temperature 53 °F 52 °F 62 °F (1905)
Min Temperature 47 °F 41 °F 13 °F (1955)
Degree Days  
Heating Degree Days 15 19  
Month to date heating degree days 184 211  
Since 1 July heating degree days 719 808  
Cooling Degree Days 0 0  
Month to date cooling degree days 0 0  
Year to date cooling degree days 323 189  
Moisture  
Dew Point 46 °F    
Average Humidity 84    
Maximum Humidity 93    
Minimum Humidity 74    
Precipitation  
Precipitation 0.25 in 0.23 in 1.52 in (1999)
Month to date precipitation 0.57 2.50  
Year to date precipitation 24.78 28.07  
Snow  
Snow 0.00 in - T in (1955)
Month to date snowfall 0.0  
Since 1 July snowfall 0.0  
Snow Depth 0.00 in    
Sea Level Pressure  
Sea Level Pressure 30.15 in    
Wind  
Wind Speed 5 mph (SE)    
Max Wind Speed 9 mph    
Max Gust Speed 12 mph    
Visibility 7 miles    
Events Rain    
T = Trace of Precipitation, MM = Missing Value Source: NWS Daily Summary

Daily Weather History Graph

Daily Weather History Graph

Search for Another Location

Airport or City:

Astronomy

Nov. 12, 2019 Rise Set
Actual Time 7:09 AM PST 4:36 PM PST
Civil Twilight 6:36 AM PST 5:10 PM PST
Nautical Twilight 5:59 AM PST 5:47 PM PST
Astronomical Twilight 5:22 AM PST 6:23 PM PST
Moon 5:08 PM PST (11/12) 7:03 AM PST (11/12)
Length of Visible Light 10h 33m
Length of Day
9h 27m
Full, 100% of the Moon is Illuminated
Nov 12
Full
Nov 19
Last Quarter
Nov 26
New
Dec 3
First Quarter
Dec 11
Full

Hourly Weather History & Observations

Time (PST) Temp. Dew Point Humidity Pressure Visibility Wind Dir Wind Speed Gust Speed Precip Events Conditions
12:53 AM 48.9 °F 45.0 °F 86% 30.12 in 10.0 mi North 5.8 mph - N/A   Overcast
1:53 AM 50.0 °F 44.1 °F 80% 30.11 in 10.0 mi North 8.1 mph - N/A   Overcast
2:53 AM 50.0 °F 42.1 °F 74% 30.09 in 10.0 mi NNE 5.8 mph - N/A   Overcast
4:53 AM 48.0 °F 43.0 °F 83% 30.07 in 10.0 mi NNW 4.6 mph - 0.00 in Rain Light Rain
5:53 AM 46.9 °F 44.1 °F 90% 30.08 in 10.0 mi NW 5.8 mph - 0.04 in Rain Light Rain
6:53 AM 46.9 °F 44.1 °F 90% 30.10 in 5.0 mi NNW 4.6 mph - 0.05 in Rain Light Rain
7:03 AM 46.9 °F 44.1 °F 90% 30.08 in 5.0 mi NNW 3.5 mph - 0.02 in Rain Light Rain
7:53 AM 48.0 °F 44.1 °F 86% 30.13 in 5.0 mi NNE 6.9 mph - 0.10 in Rain Light Rain
8:53 AM 48.0 °F 44.1 °F 86% 30.14 in 6.0 mi East 4.6 mph - 0.04 in Rain Light Rain
9:10 AM 48.0 °F 44.1 °F 86% 30.12 in 10.0 mi SE 3.5 mph - 0.00 in   Overcast
9:44 AM 48.9 °F 45.0 °F 86% 30.12 in 10.0 mi South 4.6 mph - 0.00 in   Overcast
9:53 AM 48.9 °F 45.0 °F 86% 30.14 in 10.0 mi SSE 6.9 mph - 0.00 in   Overcast
10:53 AM 48.9 °F 45.0 °F 86% 30.15 in 10.0 mi South 5.8 mph - N/A   Overcast
11:53 AM 50.0 °F 46.9 °F 89% 30.15 in 10.0 mi SSW 5.8 mph - N/A   Overcast
12:53 PM 51.1 °F 46.0 °F 83% 30.15 in 10.0 mi SSW 5.8 mph - N/A   Overcast
1:53 PM 51.1 °F 46.0 °F 83% 30.16 in 8.0 mi SSW 4.6 mph - N/A   Overcast
2:53 PM 51.1 °F 46.0 °F 83% 30.17 in 8.0 mi South 5.8 mph - N/A   Overcast
3:31 PM 51.1 °F 46.9 °F 86% 30.15 in 7.0 mi South 3.5 mph - N/A   Overcast
3:53 PM 51.1 °F 46.9 °F 86% 30.17 in 7.0 mi SSE 6.9 mph - N/A   Overcast
4:53 PM 51.1 °F 46.9 °F 86% 30.17 in 8.0 mi SE 6.9 mph - N/A   Overcast
5:53 PM 51.1 °F 46.9 °F 86% 30.18 in 6.0 mi SSE 5.8 mph - N/A   Overcast
6:42 PM 53.1 °F 48.0 °F 83% 30.16 in 2.0 mi Variable 5.8 mph - 0.00 in   Light Drizzle
6:53 PM 51.1 °F 48.0 °F 89% 30.19 in 2.0 mi ESE 5.8 mph - 0.00 in   Light Drizzle
7:30 PM 51.1 °F 48.0 °F 89% 30.17 in 4.0 mi ESE 4.6 mph - 0.01 in   Light Drizzle
7:53 PM 51.1 °F 48.0 °F 89% 30.19 in 3.0 mi SE 3.5 mph - 0.01 in   Light Drizzle
8:34 PM 51.1 °F 48.9 °F 92% 30.17 in 3.0 mi South 3.5 mph - 0.01 in   Light Drizzle
8:51 PM 51.8 °F 48.2 °F 88% 30.17 in 3.0 mi Calm Calm - 0.01 in   Light Drizzle
8:53 PM 51.1 °F 48.9 °F 92% 30.19 in 3.0 mi Calm Calm - 0.01 in   Light Drizzle
9:49 PM 51.8 °F 48.2 °F 88% 30.17 in 5.0 mi Variable 4.6 mph - 0.00 in   Overcast
9:53 PM 52.0 °F 48.9 °F 89% 30.19 in 5.0 mi Variable 4.6 mph - 0.00 in   Overcast
10:53 PM 51.1 °F 48.9 °F 92% 30.20 in 4.0 mi SE 5.8 mph - N/A   Overcast
11:43 PM 52.0 °F 48.9 °F 89% 30.18 in 8.0 mi SE 4.6 mph - N/A   Overcast
11:53 PM 51.1 °F 48.9 °F 92% 30.20 in 8.0 mi Calm Calm - N/A   Overcast